User: anonymous
Location: Caltech
(34.1382°N, 118.1253°W)
Time: 13:26:44
(UTC-07:00)
Language:

CZ-4B DEB - Orbit

View from above orbital plane
View from above orbital plane
View from above satellite
View from above satellite

Ground track
Ground track

The orbit data is extracted from the following two-line orbital elements,

1 27433U 02024D   14232.46445854  .00000280  00000-0  17787-3 0  8991
2 27433 098.8320 197.1808 0015994 087.3507 020.4542 14.11590370631584
Epoch (UTC): 20 August 2014 11:08:49
Eccentricity: 0.0015994
inclination: 98.8320°
perigee height: 842 km
apogee height: 865 km
right ascension of ascending node: 197.1808°
argument of perigee: 87.3507°
revolutions per day: 14.11590370
mean anomaly at epoch: 20.4542°
orbit number at epoch: 63158

The dashed part of the orbit path shows where the satellite is in the earth's shadow,  

DLR